Location: Navajo
(48.7922°N, 105.0603°W)
Time: 11:14:00
(UTC+00:00)

KKS-1 - Pass Details

Date: 09 July 2022
Orbit: 634 x 649 km, 98.2° (Epoch: 18 August)

Event Time Altitude Azimuth Distance (km) Brightness Sun altitude
Rises 07:02:55 0° 356° (N) 2,976 ? -18.9°
Reaches altitude 10° 07:07:01 10° 319° (NW) 2,055 ? -18.9°
Maximum altitude 07:07:58 11° 306° (NW) 2,011 ? -18.9°
Drops below altitude 10° 07:08:56 10° 294° (WNW) 2,051 ? -18.9°
Sets 07:13:01 0° 256° (WSW) 2,950 ? -18.8°
